Location: Alsip
(41.6689°N, 87.7387°W)
Time: 07:50:52
(UTC+00:00)

XW-2B - Pass Details

Date: 27 October 2021
Orbit: 504 x 522 km, 97.5° (Epoch: 30 November)

Event Time Altitude Azimuth Distance (km) Brightness Sun altitude
Rises 11:19:42 0° 22° (NNE) 2,616 ? -11.4°
Reaches altitude 10° 11:21:58 10° 33° (NNE) 1,727 ? -10.9°
Maximum altitude 11:25:19 31° 97° (E) 913 ? -10.3°
Drops below altitude 10° 11:28:38 10° 161° (SSE) 1,721 ? -9.7°
Sets 11:30:53 0° 172° (S) 2,604 ? -9.3°
